Location: Brown Observing Site
(43.4354°N, 116.3366°W)
Time: 02:20:35
(UTC-06:00)

Envisat - Pass Details

Date: 02 October 2020
Orbit: 764 x 766 km, 98.1° (Epoch: 23 October)

Event Time Altitude Azimuth Distance (km) Brightness Sun altitude
Rises 06:30:24 0° 31° (NNE) 3,238 6.8 -14.3°
Reaches altitude 10° 06:33:44 10° 54° (NE) 2,305 6.5 -13.7°
Maximum altitude 06:36:39 15° 89° (E) 1,960 6.4 -13.2°
Drops below altitude 10° 06:39:33 10° 125° (SE) 2,295 6.2 -12.6°
Sets 06:42:50 0° 148° (SSE) 3,215 6.6 -12.0°
